Tracking 35280 objects as of 6-Sep-2026
HD Live streaming from Space Station
objects crossing your sky now

STARLINK-11700

Track STARLINK-11700 now!
10-day predictions
STARLINK-11700 is classified as:


NORAD ID: 64068
Int'l Code: 2025-107E
Launch date: May 21, 2025
Source: United States (US)
Launch site: AIR FORCE EASTERN TEST RANGE (AFETR)
Your satellite tracking list
Your tracking list is empty




NASA's NSSDC Master Catalog

Two Line Element Set (TLE):
1 64068U 25107E   26249.58437265  .00132924  00000-0  10167-2 0  9990
2 64068  42.9999  88.2569 0006149 291.7498  68.2715 15.70964558 75748
Source of the keplerian elements: AFSPC